Governador Jorge Teixeira de Oliveira Airport
SBPV : now visible

Airfield :











YOU CAN JOIN US ON...

 
LOGIN :

Register | Disclaimer

   EN    FR    IT 

 









Legend :    VFR   Marginal VFR   IFR   Intensive IFR   Very Intensive IFR
Visi :
Ceiling :
>= 8 km
>= 3000ft
5 to 8 km
1000 to 3000 ft
1500m to 5 km
500 to 1000 ft
800 to 1500m
200 to 500 ft
< 800m
< 200 ft
Symbols :   Thunderstorms  Fog  Heavy snow  Heavy precipitations  Wind > 20 kt






- Airport Elevation : 290 ft
- IATA code : PVH


SBPV - Governador Jorge Teixeira de Oliveira

CURRENT METAR :
  • 280800Z 17003KT 9999 FEW010 SCT100 22/20 Q1011

EXPIRED METARs :
  • 280700Z 20003KT 9999 FEW010 22/21 Q1011
  • 280600Z 15001KT 9999 FEW010 22/21 Q1012

TAF TAF SBPV
Valid from the 28 at 06:00 until the 29 at 06:00 UTC


280300Z 2806/2906 00000KT 9999 FEW035 TN22/2807Z TX29/2815Z
BECMG 2815/2817 12005KT SCT025 FEW030TCU RMK PDX
SBAZ FIR / South America



MET'MAP, your aeronautical weather chart ! - Copyright ORBIFLY December 2007 - Disclaimer

ORBIFLY MET'MAP TEAM :

Programming & Development : Alexandra Zaïnal
Concept & original design : Baudouin d'Aumeries
Assistance for programming : Marc-Olivier Méhu
Technical & hardware support : Manuel Goepfert

Contact : metmap@orbifly.com




SOURCES & CREDITS :

   NOAA       Earth
Advisory